Location: Marysville Observatory
(48.1092°N, 122.1645°W)
Time: 16:48:59
(UTC-07:00)

Amateur Radio Satellites - All Passes

Search period start: 30 September 2016 16:18
Search period end: 01 October 2016 16:18
Location: Marysville Observatory, 48.1092°N, 122.1645°W

Satellite Date Start Highest point End Downlink Frequencies (MHz)
Time Altitude Azimuth
ITAMSAT 1 30 Sep 16:29:22 16:33:17 21° 268° (W) 16:37:14 435.822/435.867
MOZHAYETS 4 30 Sep 16:33:40 16:38:06 41° 98° (E) 16:42:29
KKS-1 30 Sep 16:36:55 16:40:44 27° 95° (E) 16:44:31 437.445
Cosmos 2491 30 Sep 16:39:18 16:47:32 42° 292° (WNW) 16:55:51 435.465 / 435.565
YUBILEINY 30 Sep 16:40:01 16:45:25 19° 286° (WNW) 16:50:50 435.215
BRITE-PL 30 Sep 16:40:59 16:45:42 28° 64° (ENE) 16:50:16 437.365/2234.400
NOAA 18 30 Sep 16:41:10 16:43:12 12° 50° (NE) 16:45:13 137.9125
O/OREOS (USA 219) 30 Sep 16:44:07 16:48:46 84° 65° (ENE) 16:53:21 437.305
NOAA 15 30 Sep 16:45:41 16:49:04 17° 55° (NE) 16:52:27 137.62
ITUPSAT 1 30 Sep 16:48:30 16:52:52 35° 294° (WNW) 16:57:13 437.325
SO-50 30 Sep 16:55:36 16:59:51 30° 323° (NW) 17:04:03 436.795
HORYU 2 30 Sep 16:58:04 17:02:21 53° 70° (ENE) 17:06:40 437.375
SWISSCUBE 30 Sep 17:00:10 17:04:07 26° 298° (WNW) 17:08:03 437.505
STARS 30 Sep 17:02:06 17:05:43 25° 94° (E) 17:09:18 437.465
GONETS M04 30 Sep 17:10:06 17:12:32 11° 42° (NE) 17:14:58
CUTE-I 30 Sep 17:11:24 17:15:24 22° 59° (ENE) 17:19:27 437.470
Cubesat XI-IV 30 Sep 17:12:14 17:16:17 23° 59° (ENE) 17:20:20 437.490
BEESAT 30 Sep 17:12:59 17:16:40 22° 299° (WNW) 17:20:21 436.000
Cosmos 2504 30 Sep 17:30:02 17:34:45 18° 282° (WNW) 17:39:36 435.465 / 435.565
HO-68 30 Sep 17:30:39 17:33:34 13° 41° (NE) 17:36:29 435.675
RS-15 30 Sep 17:41:23 17:44:21 11° 89° (E) 17:47:22 29.354- 29.394
AO-7 30 Sep 17:42:45 17:48:32 20° 272° (W) 17:54:21 29.400- 29.500
AIST 1 30 Sep 17:44:28 17:47:13 17° 275° (W) 17:49:57
LilacSat-2 30 Sep 17:46:04 17:49:21 29° 68° (ENE) 17:52:40 437.200
GOMX 1 30 Sep 17:51:56 17:56:59 48° 71° (ENE) 18:01:48 467.674
DOVE 4 30 Sep 17:58:33 18:02:31 26° 65° (ENE) 18:06:19 437.250
CUBESAT XI-V 30 Sep 18:01:50 18:06:22 46° 98° (E) 18:10:52 437.345
CUSAT 1 30 Sep 18:04:28 18:09:51 25° 80° (E) 18:15:49 437.405
MOZHAYETS 4 30 Sep 18:11:12 18:15:04 26° 296° (WNW) 18:18:55
KKS-1 30 Sep 18:13:20 18:17:22 35° 293° (WNW) 18:21:23 437.445
NOAA 18 30 Sep 18:17:27 18:22:49 61° 69° (ENE) 18:28:12 137.9125
BRITE-PL 30 Sep 18:18:19 18:23:53 54° 261° (W) 18:29:16 437.365/2234.400
NOAA 15 30 Sep 18:22:50 18:28:09 87° 255° (WSW) 18:33:32 137.62
O/OREOS (USA 219) 30 Sep 18:25:30 18:27:27 13° 263° (W) 18:29:25 437.305
DANDE 30 Sep 18:26:27 18:29:07 13° 72° (ENE) 18:32:01 436.750
Cosmos 2499 30 Sep 18:36:07 18:42:15 26° 63° (ENE) 18:48:42 435.465 / 435.565
HORYU 2 30 Sep 18:36:09 18:39:14 18° 268° (W) 18:42:20 437.375
STARS 30 Sep 18:38:08 18:42:11 38° 292° (WNW) 18:46:14 437.465
SO-50 30 Sep 18:39:50 18:41:49 12° 346° (NNW) 18:43:46 436.795
Cosmos 2491 30 Sep 18:45:52 18:47:32 11° 319° (NW) 18:49:12 435.465 / 435.565
CINEMA 3 30 Sep 18:48:02 18:51:15 21° 64° (ENE) 18:54:24 145.822/145.860
CUTE-I 30 Sep 18:49:45 18:55:01 64° 258° (WSW) 19:00:20 437.470
Cubesat XI-IV 30 Sep 18:50:39 18:55:55 64° 258° (WSW) 19:01:14 437.490
GONETS M04 30 Sep 19:04:00 19:12:23 44° 69° (ENE) 19:20:39
ISS 30 Sep 19:06:37 19:07:49 12° 134° (SE) 19:09:01 145.825
COMPASS 1 30 Sep 19:08:12 19:10:01 13° 58° (ENE) 19:11:49 437.405
HO-68 30 Sep 19:12:52 19:19:39 48° 63° (ENE) 19:26:27 435.675
LilacSat-2 30 Sep 19:20:34 19:23:40 24° 266° (W) 19:26:48 437.200
GOMX 1 30 Sep 19:30:51 19:35:15 26° 267° (W) 19:39:28 467.674
CUBEBUG 2 30 Sep 19:34:20 19:37:04 17° 62° (ENE) 19:39:49 437.445
DOVE 4 30 Sep 19:35:23 19:40:03 43° 262° (W) 19:44:29 437.250
CUBESAT XI-V 30 Sep 19:39:44 19:43:30 24° 297° (WNW) 19:47:15 437.345
SEEDS 30 Sep 19:40:30 19:44:18 34° 68° (ENE) 19:48:09 437.485
RS-15 30 Sep 19:42:27 19:53:31 53° 113° (ESE) 20:05:06 29.354- 29.394
CUSAT 1 30 Sep 19:44:05 19:50:54 80° 282° (WNW) 19:58:54 437.405
CUTE 1.7 + AOD 2 30 Sep 19:44:44 19:48:51 51° 72° (ENE) 19:53:01 437.475
UWE-3 30 Sep 19:45:52 19:48:20 16° 61° (ENE) 19:50:48 435.000/436.395/437.385
CANX-2 30 Sep 19:46:34 19:50:46 61° 73° (ENE) 19:55:00 2200.000
AAUSAT CUBESAT 2 30 Sep 19:53:57 19:57:27 26° 66° (ENE) 20:01:00 437.432
Oscar 11 30 Sep 19:59:39 20:02:05 15° 59° (ENE) 20:04:31 145.826/435.025
NOAA 18 30 Sep 19:59:43 20:03:54 22° 268° (W) 20:08:06 137.9125
DANDE 30 Sep 20:04:23 20:10:04 68° 96° (E) 20:17:29 436.750
NOAA 15 30 Sep 20:06:10 20:08:43 13° 273° (W) 20:11:16 137.62
ZACube-1 30 Sep 20:07:35 20:10:14 17° 61° (ENE) 20:12:55 437.345
STRAND 1 30 Sep 20:22:03 20:27:09 56° 101° (E) 20:32:12 437.568
SO-50 30 Sep 20:22:43 20:24:22 12° 11° (N) 20:26:01 436.795
CINEMA 3 30 Sep 20:23:56 20:28:09 46° 261° (W) 20:32:16 145.822/145.860
Cosmos 2499 30 Sep 20:28:34 20:36:08 77° 264° (W) 20:44:16 435.465 / 435.565
ISS 30 Sep 20:40:32 20:43:45 61° 152° (SSE) 20:47:00 145.825
COMPASS 1 30 Sep 20:40:45 20:44:57 84° 260° (W) 20:49:11 437.405
DELFI C3 30 Sep 20:46:53 20:49:29 17° 62° (ENE) 20:52:05 145.870
AO-85 30 Sep 20:55:08 21:00:08 53° 122° (ESE) 21:04:50 145.980
FUNcube-1 30 Sep 20:58:10 21:02:07 46° 71° (ENE) 21:06:08 145.935
HO-68 30 Sep 21:00:50 21:07:29 40° 263° (W) 21:14:11 435.675
GONETS M04 30 Sep 21:00:59 21:09:20 49° 272° (W) 21:17:36
CUBEBUG 2 30 Sep 21:09:16 21:13:21 54° 260° (W) 21:17:26 437.445
PRISM 30 Sep 21:12:01 21:14:50 18° 92° (E) 21:17:37 437.425
SEEDS 30 Sep 21:16:29 21:20:03 26° 266° (W) 21:23:39 437.485
UWE-3 30 Sep 21:20:15 21:24:21 62° 259° (W) 21:28:30 435.000/436.395/437.385
CUTE 1.7 + AOD 2 30 Sep 21:22:07 21:25:00 18° 270° (W) 21:27:55 437.475
CANX-2 30 Sep 21:24:36 21:27:03 15° 271° (W) 21:29:31 2200.000
CUSAT 1 30 Sep 21:29:00 21:34:21 22° 306° (NW) 21:40:09 437.405
AAUSAT CUBESAT 2 30 Sep 21:29:02 21:32:50 33° 264° (W) 21:36:40 437.432
Oscar 11 30 Sep 21:33:22 21:37:40 73° 257° (WSW) 21:42:02 145.826/435.025
HUMSAT D 30 Sep 21:33:43 21:37:09 26° 65° (ENE) 21:40:37 437.325/437.525
ZACube-1 30 Sep 21:42:04 21:46:08 56° 260° (W) 21:50:15 437.345
DANDE 30 Sep 21:48:31 21:53:43 28° 302° (WNW) 21:59:59 436.750
RS-15 30 Sep 21:54:11 22:05:54 63° 319° (NW) 22:18:11 29.354- 29.394
STRAND 1 30 Sep 22:01:54 22:05:59 24° 299° (WNW) 22:10:03 437.568
SO-50 30 Sep 22:02:29 22:06:26 27° 35° (NE) 22:10:18 436.795
ISS 30 Sep 22:17:10 22:20:21 47° 351° (N) 22:23:32 145.825
DELFI C3 30 Sep 22:20:00 22:23:55 54° 260° (W) 22:27:54 145.870
Cosmos 2499 30 Sep 22:23:45 22:28:03 16° 284° (WNW) 22:32:32 435.465 / 435.565
FUNcube-1 30 Sep 22:35:47 22:38:39 18° 269° (W) 22:41:33 145.935
AO-85 30 Sep 22:36:20 22:40:50 32° 320° (NW) 22:45:03 145.980
UNISAT 6 30 Sep 22:38:23 22:41:56 23° 93° (E) 22:45:30 437.425
PRISM 30 Sep 22:46:24 22:50:25 49° 290° (WNW) 22:54:22 437.425
CUBEBUG 1 30 Sep 22:48:39 22:51:54 21° 62° (ENE) 22:55:09 437.445
50 SAT 30 Sep 22:50:46 22:52:25 13° 60° (ENE) 22:54:04 437.505
VELOX 1 30 Sep 22:53:35 22:56:40 19° 61° (ENE) 22:59:46 145.980
ESTCUBE 1 30 Sep 23:07:26 23:11:45 44° 69° (ENE) 23:16:05 437.505/2401.250
HUMSAT D 30 Sep 23:08:57 23:12:40 33° 264° (W) 23:16:26 437.325/437.525
ANTELSAT 30 Sep 23:13:07 23:17:26 48° 100° (E) 23:21:49 437.575/2403.000
SPROUT 30 Sep 23:13:56 23:16:34 16° 60° (ENE) 23:19:12 437.525
AUBIESAT-1 30 Sep 23:16:07 23:19:01 21° 60° (ENE) 23:21:49 437.475
TIGRISAT 30 Sep 23:32:37 23:37:03 72° 103° (ESE) 23:41:32 435.000
UKube-1 30 Sep 23:34:09 23:37:34 23° 63° (ENE) 23:40:59 .
NANOSAT C BR1 30 Sep 23:39:27 23:41:18 13° 88° (E) 23:43:09 145.865
SO-50 30 Sep 23:42:44 23:47:17 62° 237° (WSW) 23:51:42 436.795
AISAT 30 Sep 23:45:03 23:49:25 57° 71° (ENE) 23:53:47 437.250
ISS 30 Sep 23:53:58 23:57:11 50° 12° (NNE) 00:00:24 145.825
M-CUBED/EXP-1 PRIME 30 Sep 23:55:26 23:59:22 66° 68° (ENE) 00:03:02 437.505
QB50P2 01 Oct 00:04:55 00:08:28 26° 94° (E) 00:12:00 145.880/145.840
POLYITAN 1 01 Oct 00:07:04 00:10:38 26° 94° (E) 00:14:11 437.675
DX 1 01 Oct 00:08:26 00:12:44 60° 72° (ENE) 00:17:04 434.975-435.025
RS-15 01 Oct 00:10:24 00:21:23 37° 351° (N) 00:32:37 29.354- 29.394
UNISAT 6 01 Oct 00:14:38 00:18:49 43° 290° (WNW) 00:23:04 437.425
JAS-2 01 Oct 00:19:05 00:26:21 39° 93° (E) 00:33:14 435.910
AO-85 01 Oct 00:20:51 00:22:39 12° 343° (NNW) 00:24:26 145.980
TISAT 1 01 Oct 00:21:33 00:24:18 17° 61° (ENE) 00:27:03 437.305
50 SAT 01 Oct 00:21:49 00:25:26 63° 259° (W) 00:29:05 437.505
CUBEBUG 1 01 Oct 00:23:33 00:27:52 51° 260° (W) 00:32:10 437.445
VELOX 1 01 Oct 00:28:21 00:32:44 58° 259° (W) 00:37:09 145.980
BUGSAT 1 01 Oct 00:28:41 00:31:09 16° 91° (E) 00:33:36 437.445
BEESAT 3 01 Oct 00:32:33 00:36:09 36° 119° (ESE) 00:39:48 437.485
DUCHIFAT 1 01 Oct 00:39:36 00:43:40 47° 99° (E) 00:47:44 145.980
ESTCUBE 1 01 Oct 00:45:10 00:48:46 23° 267° (W) 00:52:23 437.505/2401.250
QB50P1 01 Oct 00:45:35 00:49:47 63° 102° (ESE) 00:53:58 145.935-145.965
Cosmos 2491 01 Oct 00:47:45 00:55:32 32° 63° (ENE) 01:03:12 435.465 / 435.565
SPROUT 01 Oct 00:47:49 00:52:03 64° 259° (WSW) 00:56:18 437.525
AUBIESAT-1 01 Oct 00:49:43 00:53:21 37° 255° (WSW) 00:56:47 437.475
ANTELSAT 01 Oct 00:50:30 00:53:52 22° 297° (WNW) 00:57:17 437.575/2403.000
SWISSCUBE 01 Oct 00:57:21 00:59:23 13° 54° (NE) 01:01:24 437.505
POPSAT HIP 1 01 Oct 00:59:27 01:03:42 86° 103° (ESE) 01:07:55 437.405
UKube-1 01 Oct 01:09:16 01:13:23 42° 261° (W) 01:17:31 .
BEESAT 01 Oct 01:09:18 01:11:51 15° 56° (NE) 01:14:25 436.000
TIGRISAT 01 Oct 01:10:37 01:13:14 16° 300° (WNW) 01:15:53 435.000
NANOSAT C BR1 01 Oct 01:13:20 01:17:32 72° 286° (WNW) 01:21:43 145.865
AISAT 01 Oct 01:23:16 01:26:14 17° 269° (W) 01:29:13 437.250
ISS 01 Oct 01:30:31 01:33:42 50° 211° (SSW) 01:36:54 145.825
M-CUBED/EXP-1 PRIME 01 Oct 01:32:37 01:34:12 12° 263° (W) 01:35:45 437.505
BEESAT 2 01 Oct 01:34:59 01:38:56 79° 126° (SE) 01:42:56 435.950
QB50P2 01 Oct 01:40:30 01:44:20 34° 292° (WNW) 01:48:10 145.880/145.840
POLYITAN 1 01 Oct 01:42:39 01:46:30 34° 292° (WNW) 01:50:20 437.675
Gurwin Techsat 1B 01 Oct 01:45:28 01:47:27 12° 85° (E) 01:49:26 435.225
DX 1 01 Oct 01:46:36 01:49:19 16° 269° (W) 01:52:03 434.975-435.025
YUBILEINY 01 Oct 01:52:09 01:58:57 26° 79° (ENE) 02:05:42 435.215
TISAT 1 01 Oct 01:55:26 01:59:33 56° 259° (W) 02:03:41 437.305
Oscar 19 01 Oct 01:56:51 02:01:21 29° 94° (E) 02:05:47 437.125/150
BUGSAT 1 01 Oct 02:02:55 02:06:51 52° 288° (WNW) 02:10:46 437.445
JAS-2 01 Oct 02:03:56 02:11:35 56° 294° (WNW) 02:18:53 435.910
BEESAT 3 01 Oct 02:10:21 02:13:52 30° 319° (NW) 02:17:24 437.485
DUCHIFAT 1 01 Oct 02:16:00 02:19:04 20° 297° (WNW) 02:22:07 145.980
ITUPSAT 1 01 Oct 02:20:38 02:25:18 55° 70° (ENE) 02:30:00 437.325
QB50P1 01 Oct 02:22:32 02:25:07 16° 300° (WNW) 02:27:42 145.935-145.965
RS-15 01 Oct 02:26:10 02:37:49 44° 25° (NNE) 02:49:26 29.354- 29.394
Cosmos 2504 01 Oct 02:29:43 02:32:53 13° 74° (ENE) 02:36:01 435.465 / 435.565
SWISSCUBE 01 Oct 02:31:37 02:36:22 78° 74° (ENE) 02:41:11 437.505
POPSAT HIP 1 01 Oct 02:37:06 02:38:51 12° 302° (WNW) 02:40:37 437.405
BEESAT 01 Oct 02:44:12 02:48:57 89° 246° (WSW) 02:53:47 436.000
Cosmos 2491 01 Oct 02:44:21 02:53:07 69° 267° (W) 03:01:49 435.465 / 435.565
AIST 2 01 Oct 02:51:19 02:54:27 21° 114° (ESE) 02:57:35 435.215
PCSat 01 Oct 02:56:51 02:59:06 13° 102° (ESE) 03:01:20 145.827
ITAMSAT 1 01 Oct 02:58:46 03:01:51 16° 88° (E) 03:04:55 435.822/435.867
BEESAT 2 01 Oct 03:14:20 03:17:14 19° 327° (NNW) 03:20:10 435.950
Gurwin Techsat 1B 01 Oct 03:22:54 03:28:16 80° 104° (ESE) 03:33:36 435.225
CUBESAT XI-V 01 Oct 03:35:21 03:36:23 11° 54° (NE) 03:37:25 437.345
Oscar 19 01 Oct 03:35:57 03:40:48 42° 293° (WNW) 03:45:37 437.125/150
KKS-1 01 Oct 03:38:06 03:42:14 39° 68° (ENE) 03:46:24 437.445
MOZHAYETS 4 01 Oct 03:38:42 03:43:12 59° 72° (ENE) 03:47:45
AO-85 01 Oct 03:43:53 03:47:19 22° 33° (NNE) 03:50:34 145.980
AO-7 01 Oct 03:44:26 03:51:07 26° 92° (E) 03:57:45 29.400- 29.500
YUBILEINY 01 Oct 03:46:00 03:54:48 79° 281° (W) 04:03:36 435.215
JAS-2 01 Oct 03:50:35 03:54:56 16° 315° (NW) 03:59:15 435.910
ITUPSAT 1 01 Oct 03:59:59 04:03:29 20° 269° (W) 04:07:00 437.325
STARS 01 Oct 04:01:53 04:05:51 34° 67° (ENE) 04:09:49 437.465
SWISSCUBE 01 Oct 04:12:14 04:14:46 14° 272° (W) 04:17:18 437.505
Cosmos 2504 01 Oct 04:17:38 04:24:53 73° 95° (E) 04:32:01 435.465 / 435.565
BEESAT 01 Oct 04:25:42 04:27:27 12° 273° (W) 04:29:13 436.000
AIST 2 01 Oct 04:28:35 04:32:37 51° 313° (NW) 04:36:42 435.215
CUSAT 1 01 Oct 04:33:49 04:40:01 25° 57° (ENE) 04:45:29 437.405
PCSat 01 Oct 04:36:09 04:41:34 76° 121° (ESE) 04:47:00 145.827
ITAMSAT 1 01 Oct 04:36:42 04:41:58 81° 287° (WNW) 04:47:11 435.822/435.867
AIST 1 01 Oct 04:39:11 04:42:46 25° 88° (E) 04:46:22
RS-15 01 Oct 04:39:31 04:52:00 89° 231° (SW) 05:04:13 29.354- 29.394
Cosmos 2491 01 Oct 04:43:36 04:48:12 16° 289° (WNW) 04:52:48 435.465 / 435.565
DANDE 01 Oct 04:56:34 05:02:40 22° 54° (NE) 05:08:34 436.750
Gurwin Techsat 1B 01 Oct 05:04:01 05:07:36 19° 303° (WNW) 05:11:11 435.225
CUBESAT XI-V 01 Oct 05:08:12 05:12:52 67° 73° (ENE) 05:17:35 437.345
KKS-1 01 Oct 05:15:18 05:18:57 25° 266° (W) 05:22:36 437.445
MOZHAYETS 4 01 Oct 05:17:41 05:20:46 18° 270° (W) 05:23:53
AO-85 01 Oct 05:23:59 05:28:12 67° 236° (SW) 05:32:07 145.980
AO-7 01 Oct 05:36:26 05:44:46 80° 292° (WNW) 05:53:03 29.400- 29.500
STARS 01 Oct 05:38:30 05:42:15 27° 265° (W) 05:46:01 437.465
YUBILEINY 01 Oct 05:47:00 05:53:14 21° 305° (NW) 05:59:29 435.215
STRAND 1 01 Oct 06:04:29 06:07:59 19° 58° (ENE) 06:11:30 437.568
AIST 2 01 Oct 06:09:54 06:12:03 14° 335° (NNW) 06:14:12 435.215
Cosmos 2504 01 Oct 06:13:16 06:19:01 25° 298° (WNW) 06:24:45 435.465 / 435.565
CUSAT 1 01 Oct 06:15:21 06:23:07 83° 261° (W) 06:29:29 437.405
AIST 1 01 Oct 06:16:13 06:20:13 34° 287° (WNW) 06:24:15
ITAMSAT 1 01 Oct 06:17:50 06:20:38 15° 306° (NW) 06:23:27 435.822/435.867
BRITE-PL 01 Oct 06:20:16 06:24:46 39° 96° (E) 06:28:54 437.365/2234.400
PCSat 01 Oct 06:21:02 06:25:32 26° 323° (NW) 06:30:04 145.827
HORYU 2 01 Oct 06:21:32 06:25:59 64° 102° (ESE) 06:30:25 437.375
NOAA 15 01 Oct 06:34:49 06:39:16 27° 94° (E) 06:43:42 137.62
NOAA 18 01 Oct 06:36:40 06:40:27 19° 90° (E) 06:44:15 137.9125
DANDE 01 Oct 06:38:31 06:47:00 74° 76° (ENE) 06:54:45 436.750
CUBESAT XI-V 01 Oct 06:47:47 06:50:44 16° 271° (W) 06:53:41 437.345
LilacSat-2 01 Oct 06:49:42 06:53:01 27° 95° (E) 06:56:20 437.200
RS-15 01 Oct 06:53:05 07:02:58 30° 258° (WSW) 07:12:42 29.354- 29.394
O/OREOS (USA 219) 01 Oct 06:59:48 07:04:11 48° 109° (ESE) 07:08:38 437.305
CUTE-I 01 Oct 07:03:07 07:08:08 39° 97° (E) 07:13:07 437.470
Cubesat XI-IV 01 Oct 07:04:12 07:09:13 39° 97° (E) 07:14:13 437.490
BEESAT 3 01 Oct 07:09:16 07:11:44 16° 30° (NNE) 07:14:11 437.485
Cosmos 2499 01 Oct 07:21:14 07:24:50 15° 75° (ENE) 07:28:26 435.465 / 435.565
GOMX 1 01 Oct 07:28:18 07:32:43 79° 102° (ESE) 07:36:55 467.674
AO-7 01 Oct 07:30:13 07:36:25 24° 315° (NW) 07:42:36 29.400- 29.500
DOVE 4 01 Oct 07:30:35 07:34:26 35° 97° (E) 07:38:15 437.250
STRAND 1 01 Oct 07:41:31 07:46:37 74° 257° (WSW) 07:51:45 437.568
CUSAT 1 01 Oct 07:59:04 08:03:44 18° 284° (WNW) 08:07:58 437.405
BRITE-PL 01 Oct 07:59:04 08:03:04 27° 297° (WNW) 08:06:49 437.365/2234.400
HORYU 2 01 Oct 07:59:09 08:02:05 18° 300° (WNW) 08:05:01 437.375
PRISM 01 Oct 08:04:36 08:07:50 22° 63° (ENE) 08:11:04 437.425
PCSat 01 Oct 08:09:22 08:10:58 11° 348° (NNW) 08:12:33 145.827
GONETS M04 01 Oct 08:09:38 08:17:48 44° 86° (E) 08:25:59
BEESAT 2 01 Oct 08:12:20 08:15:40 24° 38° (NE) 08:19:00 435.950
NOAA 15 01 Oct 08:14:11 08:19:18 49° 292° (WNW) 08:24:21 137.62
CINEMA 3 01 Oct 08:14:40 08:18:19 28° 95° (E) 08:22:01 145.822/145.860
NOAA 18 01 Oct 08:16:12 08:21:41 72° 289° (WNW) 08:27:08 137.9125
COMPASS 1 01 Oct 08:21:41 08:23:34 13° 88° (E) 08:25:25 437.405
DANDE 01 Oct 08:22:08 08:29:05 30° 277° (W) 08:35:36 436.750
HO-68 01 Oct 08:23:58 08:30:25 35° 95° (E) 08:36:50 435.675
LilacSat-2 01 Oct 08:23:59 08:27:17 27° 292° (WNW) 08:30:35 437.200
O/OREOS (USA 219) 01 Oct 08:40:03 08:43:50 25° 309° (NW) 08:47:41 437.305
CUTE-I 01 Oct 08:43:18 08:48:08 35° 296° (WNW) 08:52:56 437.470
Cubesat XI-IV 01 Oct 08:44:26 08:49:14 35° 296° (WNW) 08:54:02 437.490
BEESAT 3 01 Oct 08:46:05 08:50:05 73° 51° (NE) 08:54:03 437.485
SEEDS 01 Oct 08:55:56 08:59:58 39° 97° (E) 09:03:58 437.485
CUBEBUG 2 01 Oct 08:56:21 08:59:50 23° 93° (E) 09:03:22 437.445
TIGRISAT 01 Oct 09:01:08 09:02:54 12° 57° (ENE) 09:04:41 435.000
CUTE 1.7 + AOD 2 01 Oct 09:01:34 09:05:52 64° 101° (ESE) 09:10:07 437.475
CANX-2 01 Oct 09:03:36 09:07:56 77° 102° (ESE) 09:12:15 2200.000
UWE-3 01 Oct 09:06:25 09:09:41 20° 92° (E) 09:12:59 435.000/436.395/437.385
AAUSAT CUBESAT 2 01 Oct 09:07:26 09:11:07 29° 95° (E) 09:14:47 437.432
GOMX 1 01 Oct 09:08:03 09:10:10 13° 303° (WNW) 09:12:14 467.674
DOVE 4 01 Oct 09:08:38 09:12:02 24° 295° (WNW) 09:15:22 437.250
Cosmos 2499 01 Oct 09:09:36 09:16:39 79° 97° (E) 09:23:48 435.465 / 435.565
Oscar 11 01 Oct 09:17:58 09:20:46 17° 90° (E) 09:23:34 145.826/435.025
STRAND 1 01 Oct 09:25:57 09:26:42 10° 275° (W) 09:27:26 437.568
ZACube-1 01 Oct 09:26:54 09:30:16 21° 92° (E) 09:33:39 437.345
AIST 2 01 Oct 09:30:48 09:32:48 13° 24° (NNE) 09:34:48 435.215
PRISM 01 Oct 09:38:55 09:42:53 42° 261° (W) 09:46:54 437.425
UNISAT 6 01 Oct 09:40:45 09:44:26 30° 66° (ENE) 09:48:10 437.425
BEESAT 2 01 Oct 09:49:49 09:53:45 53° 237° (WSW) 09:57:40 435.950
CINEMA 3 01 Oct 09:51:47 09:55:29 31° 293° (WNW) 09:59:14 145.822/145.860
DELFI C3 01 Oct 09:54:54 09:57:20 15° 90° (E) 09:59:44 145.870
PCSat 01 Oct 09:55:01 09:56:59 12° 15° (NNE) 09:58:58 145.827
COMPASS 1 01 Oct 09:55:23 09:59:37 72° 285° (WNW) 10:03:48 437.405
NOAA 18 01 Oct 09:58:42 10:01:26 14° 309° (NW) 10:04:10 137.9125
GONETS M04 01 Oct 10:06:01 10:14:32 50° 289° (WNW) 10:23:07
HO-68 01 Oct 10:11:30 10:18:26 55° 295° (WNW) 10:25:21 435.675
ANTELSAT 01 Oct 10:15:21 10:19:33 64° 73° (ENE) 10:23:48 437.575/2403.000
FUNcube-1 01 Oct 10:18:04 10:22:23 63° 101° (E) 10:26:48 145.935
POPSAT HIP 1 01 Oct 10:22:11 10:24:04 13° 58° (ENE) 10:25:58 437.405
BEESAT 3 01 Oct 10:25:07 10:27:13 14° 249° (WSW) 10:29:17 437.485
SEEDS 01 Oct 10:32:03 10:35:28 24° 295° (WNW) 10:38:53 437.485
CUBEBUG 2 01 Oct 10:32:34 10:36:36 40° 290° (WNW) 10:40:44 437.445
TIGRISAT 01 Oct 10:34:43 10:38:58 86° 259° (W) 10:43:15 435.000
NANOSAT C BR1 01 Oct 10:34:51 10:37:26 16° 60° (ENE) 10:40:02 145.865
JAS-2 01 Oct 10:35:15 10:40:56 27° 54° (NE) 10:47:02 435.910
CUTE 1.7 + AOD 2 01 Oct 10:38:32 10:41:14 16° 299° (WNW) 10:43:55 437.475
CANX-2 01 Oct 10:40:57 10:43:14 14° 301° (WNW) 10:45:30 2200.000
UWE-3 01 Oct 10:42:13 10:46:22 47° 289° (WNW) 10:50:37 435.000/436.395/437.385
AAUSAT CUBESAT 2 01 Oct 10:42:53 10:46:36 30° 293° (WNW) 10:50:16 437.432
HUMSAT D 01 Oct 10:48:15 10:52:03 30° 95° (E) 10:55:50 437.325/437.525
Oscar 11 01 Oct 10:52:58 10:57:16 58° 288° (WNW) 11:01:33 145.826/435.025
QB50P2 01 Oct 11:00:49 11:04:30 31° 67° (ENE) 11:08:13 145.880/145.840
ZACube-1 01 Oct 11:02:36 11:06:44 45° 290° (WNW) 11:10:58 437.345
POLYITAN 1 01 Oct 11:02:59 11:06:41 31° 66° (ENE) 11:10:23 437.675
Cosmos 2499 01 Oct 11:05:23 11:10:42 22° 300° (WNW) 11:16:06 435.465 / 435.565
AIST 2 01 Oct 11:08:14 11:12:18 46° 46° (NE) 11:16:21 435.215
UNISAT 6 01 Oct 11:17:22 11:21:08 30° 264° (W) 11:24:56 437.425
BUGSAT 1 01 Oct 11:21:49 11:24:40 19° 63° (ENE) 11:27:32 437.445
PHONESAT 2.4 01 Oct 11:27:13 11:29:20 18° 176° (S) 11:31:26 2401.200-2431.200
DELFI C3 01 Oct 11:28:34 11:32:31 53° 288° (WNW) 11:36:24 145.870
DUCHIFAT 1 01 Oct 11:34:36 11:38:40 55° 72° (ENE) 11:42:45 145.980
PCSat 01 Oct 11:37:32 11:42:16 29° 40° (NE) 11:46:59 145.827
QB50P1 01 Oct 11:41:07 11:45:18 74° 74° (ENE) 11:49:31 145.935-145.965
Oscar 19 01 Oct 11:42:14 11:43:43 11° 51° (NE) 11:45:12 437.125/150
ANTELSAT 01 Oct 11:54:27 11:56:44 14° 271° (W) 11:59:02 437.575/2403.000
POPSAT HIP 1 01 Oct 11:55:03 11:59:15 82° 257° (WSW) 12:03:29 437.405
FUNcube-1 01 Oct 11:55:25 11:58:13 17° 299° (WNW) 12:01:03 145.935
YUBILEINY 01 Oct 11:56:22 12:01:32 17° 50° (NE) 12:06:41 435.215
HO-68 01 Oct 12:01:06 12:04:40 15° 317° (NW) 12:08:15 435.675
NANOSAT C BR1 01 Oct 12:08:35 12:12:44 61° 259° (WSW) 12:16:54 145.865
CUBEBUG 1 01 Oct 12:08:56 12:12:22 22° 93° (E) 12:15:46 437.445
GONETS M04 01 Oct 12:10:23 12:14:05 13° 315° (NW) 12:17:48
VELOX 1 01 Oct 12:15:26 12:18:44 20° 92° (E) 12:22:00 145.980
JAS-2 01 Oct 12:18:19 12:25:08 79° 256° (WSW) 12:32:47 435.910
HUMSAT D 01 Oct 12:23:53 12:27:38 31° 293° (WNW) 12:31:24 437.325/437.525
SPROUT 01 Oct 12:30:58 12:33:47 17° 91° (E) 12:36:35 437.525
ESTCUBE 1 01 Oct 12:32:44 12:37:14 59° 101° (E) 12:41:41 437.505/2401.250
QB50P2 01 Oct 12:36:38 12:40:18 29° 265° (W) 12:43:59 145.880/145.840
POLYITAN 1 01 Oct 12:38:49 12:42:28 28° 264° (W) 12:46:08 437.675
AIST 2 01 Oct 12:47:08 12:50:34 25° 245° (WSW) 12:53:59 435.215
UKube-1 01 Oct 12:52:56 12:56:25 23° 94° (E) 12:59:53 .
BUGSAT 1 01 Oct 12:55:49 12:59:45 47° 260° (W) 13:03:41 437.445
AO-7 01 Oct 12:59:29 13:03:58 16° 36° (NE) 13:08:27 29.400- 29.500
PHONESAT 2.4 01 Oct 13:03:01 13:04:48 15° 192° (SSW) 13:06:36 2401.200-2431.200
M-CUBED/EXP-1 PRIME 01 Oct 13:05:46 13:08:20 21° 101° (E) 13:10:54 437.505
AISAT 01 Oct 13:07:49 13:12:13 69° 103° (ESE) 13:16:34 437.250
Gurwin Techsat 1B 01 Oct 13:08:53 13:13:22 29° 62° (ENE) 13:17:53 435.225
DUCHIFAT 1 01 Oct 13:12:06 13:14:42 16° 269° (W) 13:17:19 145.980
Oscar 19 01 Oct 13:16:54 13:22:01 61° 71° (ENE) 13:27:09 437.125/150
50 SAT 01 Oct 13:19:11 13:22:53 87° 276° (W) 13:26:31 437.505
QB50P1 01 Oct 13:19:53 13:21:36 12° 272° (W) 13:23:19 145.935-145.965
PCSat 01 Oct 13:20:42 13:26:05 63° 241° (WSW) 13:31:25 145.827
DX 1 01 Oct 13:28:59 13:33:20 69° 103° (ESE) 13:37:39 434.975-435.025
TISAT 1 01 Oct 13:36:31 13:39:16 17° 91° (E) 13:42:00 437.305
CUBEBUG 1 01 Oct 13:44:45 13:48:50 41° 291° (WNW) 13:52:53 437.445
VELOX 1 01 Oct 13:51:12 13:55:26 47° 291° (WNW) 13:59:39 145.980
YUBILEINY 01 Oct 13:51:47 14:00:27 64° 76° (ENE) 14:09:03 435.215
Cosmos 2491 01 Oct 13:54:32 14:01:53 31° 81° (E) 14:09:15 435.465 / 435.565
AUBIESAT-1 01 Oct 13:58:35 14:01:53 78° 108° (ESE) 14:05:13 437.475
SO-50 01 Oct 14:01:06 14:04:29 19° 112° (ESE) 14:07:50 436.795
Cosmos 2504 01 Oct 14:04:50 14:11:26 33° 67° (ENE) 14:18:23 435.465 / 435.565
SPROUT 01 Oct 14:05:54 14:10:03 53° 288° (WNW) 14:14:11 437.525
JAS-2 01 Oct 14:07:14 14:11:31 17° 279° (W) 14:16:02 435.910
ESTCUBE 1 01 Oct 14:10:26 14:13:38 19° 299° (WNW) 14:16:48 437.505/2401.250
ITAMSAT 1 01 Oct 14:19:37 14:24:15 34° 64° (ENE) 14:28:56 435.822/435.867
ITUPSAT 1 01 Oct 14:20:08 14:21:14 11° 86° (E) 14:22:19 437.325
UKube-1 01 Oct 14:28:34 14:32:36 39° 292° (WNW) 14:36:37 .
SWISSCUBE 01 Oct 14:29:26 14:32:16 15° 89° (E) 14:35:05 437.505
M-CUBED/EXP-1 PRIME 01 Oct 14:40:07 14:42:55 26° 298° (WNW) 14:45:42 437.505
BEESAT 01 Oct 14:41:36 14:44:52 18° 91° (E) 14:48:08 436.000
AIST 1 01 Oct 14:44:48 14:44:53 10° 61° (ENE) 14:44:58
AISAT 01 Oct 14:45:31 14:48:11 16° 301° (WNW) 14:50:49 437.250
AO-7 01 Oct 14:46:59 14:54:53 51° 60° (ENE) 15:02:48 29.400- 29.500
Gurwin Techsat 1B 01 Oct 14:48:00 14:53:07 48° 261° (W) 14:58:15 435.225
Oscar 19 01 Oct 14:57:54 15:01:45 21° 269° (W) 15:05:38 437.125/150
DX 1 01 Oct 15:06:24 15:09:01 16° 301° (WNW) 15:11:38 434.975-435.025
TISAT 1 01 Oct 15:11:10 15:15:14 52° 289° (WNW) 15:19:16 437.305
O/OREOS (USA 219) 01 Oct 15:27:14 15:31:06 25° 51° (NE) 15:34:55 437.305
MOZHAYETS 4 01 Oct 15:32:32 15:33:45 11° 86° (E) 15:34:57
SO-50 01 Oct 15:39:40 15:44:30 72° 311° (NW) 15:49:16 436.795
HORYU 2 01 Oct 15:49:16 15:51:17 13° 56° (ENE) 15:53:17 437.375
YUBILEINY 01 Oct 15:49:17 15:56:42 33° 278° (W) 16:04:05 435.215
Cosmos 2491 01 Oct 15:49:17 15:58:03 69° 284° (WNW) 16:06:54 435.465 / 435.565
ITUPSAT 1 01 Oct 15:54:59 15:59:51 81° 103° (ESE) 16:04:40 437.325
Cosmos 2504 01 Oct 15:57:56 16:05:13 59° 267° (W) 16:12:59 435.465 / 435.565
BRITE-PL 01 Oct 15:58:26 16:01:04 14° 55° (NE) 16:03:40 437.365/2234.400
ITAMSAT 1 01 Oct 15:58:55 16:03:41 37° 263° (W) 16:08:31 435.822/435.867
SWISSCUBE 01 Oct 16:05:47 16:10:36 73° 287° (WNW) 16:15:23 437.505
